Regional Weather Roundup
Issued by NWS

Home | Current Version | Previous Version | Graphics & Text | Print | Product List | Glossary On
Versions: 1 2 3 4 5 6 7 8 9 10 11 12 13 14 15 16 17 18 19 20 21 22 23 24 25 26 27 28 29 30 31 32 33 34 35 36 37 38 39 40 41 42 43 44 45 46 47 48 49 50
912
ASUS44 KLIX 170201
RWRLA
LOUISIANA WEATHER ROUNDUP
NATIONAL WEATHER SERVICE NEW ORLEANS LA
900 PM CDT WED APR 16 2014

NOTE: "FAIR" INDICATES FEW OR NO CLOUDS BELOW 12,000 FEET WITH NO
      SIGNIFICANT WEATHER AND/OR OBSTRUCTIONS TO VISIBILITY.
      SKY/WX - SKY CONDITION AND SIGNIFICANT WEATHER.
      TMP - AIR TEMPERATURE.    DP   - DEWPOINT TEMPERATURE.
      RH  - RELATIVE HUMIDITY.  PRES - PRESSURE.
      HX  - HEAT INDEX.         WCI  - WIND CHILL INDEX.

*  THESE STATIONS ARE NOT NWS OR FAA STATIONS AND ARE NOT UNDER
   NWS QUALITY CONTROL.

LAZ040-048-061>063-065-066-069-170300-
SOUTHEAST LOUISIANA

CITY           SKY/WX    TMP DP  RH WIND       PRES   REMARKS
N.O. AUDUBON     N/A     56  44  64 MISG        N/A
N.O. INTL ARPT PTCLDY    55  45  68 SE8       30.15R
N.O. LAKEFRONT PTCLDY    55  44  66 SE8       30.16R
N.O. DOWNTOWN* FAIR      55  41  58 SE9       30.16R
SLIDELL        CLEAR     49  44  83 CALM      30.14R
BATON ROUGE    PTCLDY    54  42  64 E7        30.12R
BOOTHVILLE     CLOUDY    58  47  66 E10       30.15R
BELLE CHASSE   PTCLDY    50  44  80 CALM      30.15R
BOGALUSA*        N/A     56  43  62 S6        30.16R
GALLIANO*      NOT AVBL
NEW ROADS*     NOT AVBL
GONZALES*      FAIR      55  46  73 CALM      30.13R
HAMMOND*       NOT AVBL
HOUMA*         NOT AVBL
PORT FOURCHON* CLOUDY    59  46  63 E9        30.16R

$$

LAZ041-044-053-054-170300-
SOUTHWEST LOUISIANA

CITY           SKY/WX    TMP DP  RH WIND       PRES   REMARKS
LAKE CHARLES   PTCLDY    53  49  86 CALM      30.09R
LAFAYETTE      CLEAR     57  48  72 CALM      30.10R
PATTERSON      CLEAR     55  46  71 SE6       30.15R
SALT POINT       N/A     61  49  64 SE9       30.11R
NEW IBERIA     CLEAR     55  47  74 SE5       30.11R
CHENAULT AIRPK CLEAR     54  48  82 S6        30.10R

$$

LAZ027-028-170300-
CENTRAL LOUISIANA

CITY           SKY/WX    TMP DP  RH WIND       PRES   REMARKS
FORT POLK      CLEAR     52  44  74 CALM      30.08R
ALEXANDRIA INT CLEAR     51  44  77 CALM      30.08R
ALEXANDRIA     CLEAR     49  43  80 CALM      30.10R

$$

LAZ001-002-170300-
NORTHWEST LOUISIANA

CITY           SKY/WX    TMP DP  RH WIND       PRES   REMARKS
SHREVEPORT     MOCLDY    54  40  59 S3        30.06R
BARKSDALE AFB  PTCLDY    53  39  57 SE5       30.06R
DTN SHREVEPORT PTCLDY    54  37  52 SE6       30.06R

$$

LAZ014-016-170300-
NORTHEAST LOUISIANA

CITY           SKY/WX    TMP DP  RH WIND       PRES   REMARKS
MONROE         PTCLDY    52  40  63 CALM      30.11R
TALLULAH       PTCLDY    56  46  69 CALM      30.11R

$$




USA.gov is the U.S. government's official web portal to all federal, state and local government web resources and services.